Terminal Aerodrome Forecast
Issued by NWS

Home | Current Version | Previous Version | Text Only | Print | Product List | Glossary On
Versions: 1 2 3 4 5 6 7 8 9 10 11 12 13 14 15 16 17 18 19 20 21 22 23 24 25 26 27 28 29 30 31 32 33 34 35 36 37 38 39
000
FTUS45 KBOU 280048 AAA
TAFBJC
TAF AMD
KBJC 280048Z 2801/2824 33010KT P6SM SCT080 BKN120
      TEMPO 2801/2802 VRB15G30KT -TSRA BKN060CB BKN100
     FM280200 29013KT P6SM FEW050 BKN100
     FM280300 30010KT P6SM FEW060 SCT080 BKN140
     FM280500 VRB05KT P6SM SCT080 BKN150
     FM281600 35008KT P6SM FEW050 SCT090 BKN150
     FM282000 34012KT P6SM SCT060 BKN100
      TEMPO 2820/2824 VRB15G30KT 5SM -TSRA BKN050CB=

USA.gov is the U.S. government's official web portal to all federal, state and local government web resources and services.